| time (UTC) | temp C | wind direction | speed KPH | gust KPH | rain 1hr cm | rain 24hr cm | rain mn cm | humidity % | barometer mb |
| 20260506104010 | 6 | 286 | 9.7 | 22.5 | 0.00 | 0.00 | 0.00 | 84 | 1019.7 |
| 20260506103514 | 6 | 300 | 9.7 | 22.5 | 0.00 | 0.00 | 0.00 | 85 | 1019.7 |
| 20260506103045 | 6 | 290 | 9.7 | 16.1 | 0.00 | 0.00 | 0.00 | 85 | 1019.6 |
| 20260506102515 | 6 | 321 | 8.0 | 22.5 | 0.00 | 0.00 | 0.00 | 85 | 1019.6 |
| 20260506102011 | 6 | 290 | 12.9 | 22.5 | 0.00 | 0.00 | 0.00 | 84 | 1019.8 |
| 20260506101548 | 6 | 287 | 9.7 | 19.3 | 0.00 | 0.00 | 0.00 | 85 | 1019.8 |
| 20260506101013 | 6 | 279 | 11.3 | 19.3 | 0.00 | 0.00 | 0.00 | 85 | 1019.9 |
| 20260506100512 | 6 | 311 | 12.9 | 19.3 | 0.00 | 0.00 | 0.00 | 85 | 1019.4 |
| 20260506100100 | 6 | 309 | 6.4 | 12.9 | 0.00 | 0.00 | 0.00 | 85 | 1019.7 |
| 20260506095513 | 6 | 288 | 4.8 | 14.5 | 0.00 | 0.00 | 0.00 | 85 | 1019.6 |
| 20260506095013 | 6 | 314 | 6.4 | 14.5 | 0.00 | 0.00 | 0.00 | 85 | 1019.8 |
| 20260506094535 | 6 | 290 | 6.4 | 17.7 | 0.00 | 0.00 | 0.00 | 85 | 1019.7 |
| 20260506094017 | 6 | 292 | 6.4 | 17.7 | 0.00 | 0.00 | 0.00 | 85 | 1019.6 |
| 20260506093513 | 6 | 277 | 9.7 | 16.1 | 0.00 | 0.00 | 0.00 | 85 | 1019.6 |
| 20260506093040 | 6 | 284 | 4.8 | 17.7 | 0.00 | 0.00 | 0.00 | 85 | 1019.5 |
| 20260506092512 | 6 | 294 | 8.0 | 16.1 | 0.00 | 0.00 | 0.00 | 85 | 1019.5 |
| 20260506092016 | 6 | 285 | 8.0 | 16.1 | 0.00 | 0.00 | 0.00 | 84 | 1019.5 |
| 20260506091538 | 6 | 252 | 6.4 | 17.7 | 0.00 | 0.00 | 0.00 | 84 | 1019.6 |
| 20260506091013 | 6 | 300 | 11.3 | 17.7 | 0.00 | 0.00 | 0.00 | 84 | 1019.4 |
| 20260506090512 | 6 | 294 | 8.0 | 19.3 | 0.00 | 0.00 | 0.00 | 85 | 1019.4 |
| 20260506090035 | 6 | 265 | 8.0 | 19.3 | 0.00 | 0.00 | 0.00 | 85 | 1019.4 |
| 20260506085513 | 6 | 293 | 8.0 | 17.7 | 0.00 | 0.00 | 0.00 | 84 | 1019.4 |
| 20260506085012 | 6 | 279 | 6.4 | 14.5 | 0.00 | 0.00 | 0.00 | 84 | 1019.5 |
| 20260506084545 | 6 | 278 | 6.4 | 14.5 | 0.00 | 0.00 | 0.00 | 85 | 1019.5 |
| 20260506084013 | 6 | 285 | 8.0 | 14.5 | 0.00 | 0.00 | 0.00 | 84 | 1019.5 |
| 20260506083515 | 6 | 294 | 8.0 | 14.5 | 0.00 | 0.00 | 0.00 | 83 | 1019.5 |
| 20260506083033 | 6 | 307 | 8.0 | 16.1 | 0.00 | 0.00 | 0.00 | 83 | 1019.3 |
| 20260506082512 | 6 | 306 | 8.0 | 17.7 | 0.00 | 0.00 | 0.00 | 83 | 1019.2 |
| 20260506082014 | 6 | 302 | 9.7 | 17.7 | 0.00 | 0.00 | 0.00 | 83 | 1019.4 |
| 20260506081544 | 6 | 293 | 9.7 | 16.1 | 0.00 | 0.00 | 0.00 | 83 | 1019.3 |
| 20260506081011 | 6 | 279 | 8.0 | 16.1 | 0.00 | 0.00 | 0.00 | 82 | 1019.1 |
| 20260506080514 | 6 | 207 | 8.0 | 17.7 | 0.00 | 0.00 | 0.00 | 83 | 1019.1 |
| 20260506073515 | 6 | 273 | 6.4 | 22.5 | 0.00 | 0.00 | 0.00 | 78 | 1019.1 |
| 20260506073042 | 6 | 299 | 12.9 | 22.5 | 0.00 | 0.00 | 0.00 | 78 | 1018.9 |
| 20260506072515 | 6 | 280 | 8.0 | 24.1 | 0.00 | 0.00 | 0.00 | 78 | 1018.9 |
| 20260506072013 | 6 | 267 | 14.5 | 20.9 | 0.00 | 0.00 | 0.00 | 77 | 1018.8 |
| 20260506071539 | 6 | 269 | 12.9 | 19.3 | 0.00 | 0.00 | 0.00 | 77 | 1018.9 |
| 20260506071018 | 6 | 258 | 12.9 | 19.3 | 0.00 | 0.00 | 0.00 | 77 | 1018.8 |
| 20260506070513 | 6 | 225 | 8.0 | 12.9 | 0.00 | 0.00 | 0.00 | 78 | 1018.8 |
| 20260506062514 | 6 | 279 | 8.0 | 17.7 | 0.00 | 0.00 | 0.00 | 77 | 1018.7 |
| 20260506062013 | 6 | 284 | 9.7 | 20.9 | 0.00 | 0.00 | 0.00 | 77 | 1018.8 |
| 20260506061535 | 6 | 284 | 11.3 | 20.9 | 0.00 | 0.00 | 0.00 | 77 | 1018.6 |
| 20260506061017 | 6 | 275 | 11.3 | 20.9 | 0.00 | 0.00 | 0.00 | 77 | 1018.7 |
| 20260506060517 | 6 | 293 | 11.3 | 19.3 | 0.00 | 0.00 | 0.00 | 77 | 1018.6 |
| 20260506051014 | 7 | 261 | 14.5 | 27.4 | 0.00 | 0.00 | 0.00 | 74 | 1018.5 |
| 20260506050514 | 7 | 323 | 14.5 | 27.4 | 0.00 | 0.00 | 0.00 | 75 | 1018.2 |
| 20260506045016 | 7 | 261 | 17.7 | 27.4 | 0.00 | 0.00 | 0.00 | 73 | 1017.9 |
| 20260506044615 | 7 | 344 | 14.5 | 27.4 | 0.00 | 0.00 | 0.00 | 74 | 1017.9 |
| 20260506044016 | 7 | 288 | 16.1 | 30.6 | 0.00 | 0.00 | 0.00 | 74 | 1017.9 |
| 20260506043515 | 7 | 288 | 19.3 | 30.6 | 0.00 | 0.00 | 0.00 | 73 | 1018.0 |
| 20260506043042 | 8 | 261 | 16.1 | 25.7 | 0.00 | 0.00 | 0.00 | 74 | 1017.8 |
| 20260506042514 | 8 | 308 | 12.9 | 27.4 | 0.00 | 0.00 | 0.00 | 75 | 1017.8 |
| 20260506042016 | 8 | 344 | 9.7 | 27.4 | 0.00 | 0.00 | 0.00 | 75 | 1017.8 |
| 20260506041556 | 8 | 296 | 12.9 | 22.5 | 0.00 | 0.00 | 0.00 | 73 | 1017.5 |
| 20260506041021 | 8 | 293 | 12.9 | 20.9 | 0.00 | 0.00 | 0.00 | 73 | 1017.4 |
| 20260506040515 | 8 | 317 | 12.9 | 25.7 | 0.00 | 0.00 | 0.00 | 72 | 1017.3 |
| 20260506040042 | 8 | 267 | 16.1 | 25.7 | 0.00 | 0.00 | 0.00 | 71 | 1017.1 |
| 20260506035514 | 8 | 347 | 8.0 | 25.7 | 0.00 | 0.00 | 0.00 | 72 | 1017.2 |
| 20260506035014 | 9 | 281 | 11.3 | 27.4 | 0.00 | 0.00 | 0.00 | 71 | 1017.0 |
| 20260506034616 | 9 | 286 | 12.9 | 27.4 | 0.00 | 0.00 | 0.00 | 68 | 1016.9 |
| 20260506034014 | 10 | 276 | 16.1 | 27.4 | 0.00 | 0.00 | 0.00 | 68 | 1016.9 |
| 20260506033515 | 10 | 267 | 14.5 | 25.7 | 0.00 | 0.00 | 0.00 | 66 | 1016.8 |
| 20260506033039 | 10 | 331 | 14.5 | 25.7 | 0.00 | 0.00 | 0.00 | 63 | 1016.7 |
| 20260506032517 | 10 | 288 | 12.9 | 22.5 | 0.00 | 0.00 | 0.00 | 63 | 1016.8 |
| 20260506032014 | 10 | 257 | 12.9 | 29.0 | 0.00 | 0.00 | 0.00 | 65 | 1016.7 |
| 20260506031533 | 11 | 301 | 14.5 | 29.0 | 0.00 | 0.00 | 0.00 | 61 | 1016.6 |
| 20260506031017 | 11 | 266 | 12.9 | 25.7 | 0.00 | 0.00 | 0.00 | 61 | 1016.6 |
| 20260506030520 | 11 | 273 | 12.9 | 25.7 | 0.00 | 0.00 | 0.00 | 60 | 1016.5 |
| 20260506030045 | 11 | 324 | 11.3 | 25.7 | 0.00 | 0.00 | 0.00 | 61 | 1016.5 |
| 20260506025518 | 11 | 306 | 9.7 | 25.7 | 0.00 | 0.00 | 0.00 | 60 | 1016.5 |
| 20260506025018 | 11 | 305 | 12.9 | 25.7 | 0.00 | 0.00 | 0.00 | 61 | 1016.5 |
| 20260506024550 | 11 | 261 | 11.3 | 27.4 | 0.00 | 0.00 | 0.00 | 59 | 1016.4 |
| 20260506024019 | 11 | 316 | 14.5 | 29.0 | 0.00 | 0.00 | 0.00 | 58 | 1016.3 |
| 20260506023516 | 11 | 306 | 19.3 | 29.0 | 0.00 | 0.00 | 0.00 | 56 | 1016.4 |
| 20260506023106 | 12 | 299 | 19.3 | 32.2 | 0.00 | 0.00 | 0.00 | 56 | 1016.2 |
| 20260506022520 | 11 | 303 | 22.5 | 32.2 | 0.00 | 0.00 | 0.00 | 59 | 1016.2 |
| 20260506022016 | 12 | 290 | 22.5 | 32.2 | 0.00 | 0.00 | 0.00 | 55 | 1016.1 |
| 20260506021547 | 12 | 309 | 17.7 | 30.6 | 0.00 | 0.00 | 0.00 | 57 | 1016.2 |
| 20260506021019 | 12 | 301 | 20.9 | 30.6 | 0.00 | 0.00 | 0.00 | 57 | 1016.2 |
| 20260506020514 | 12 | 306 | 19.3 | 32.2 | 0.00 | 0.00 | 0.00 | 57 | 1016.3 |
| 20260506020048 | 12 | 309 | 22.5 | 32.2 | 0.00 | 0.00 | 0.00 | 57 | 1016.3 |
| 20260506015519 | 12 | 310 | 22.5 | 27.4 | 0.00 | 0.00 | 0.00 | 56 | 1016.4 |
| 20260506015017 | 12 | 299 | 20.9 | 27.4 | 0.00 | 0.00 | 0.00 | 56 | 1016.2 |
| 20260506014543 | 12 | 284 | 17.7 | 27.4 | 0.00 | 0.00 | 0.00 | 56 | 1016.2 |
| 20260506014018 | 13 | 332 | 17.7 | 27.4 | 0.00 | 0.00 | 0.00 | 55 | 1016.1 |
| 20260506013518 | 13 | 316 | 17.7 | 27.4 | 0.00 | 0.00 | 0.00 | 54 | 1016.1 |
| 20260506013044 | 13 | 313 | 17.7 | 27.4 | 0.00 | 0.00 | 0.00 | 54 | 1016.0 |
| 20260506012518 | 13 | 292 | 14.5 | 25.7 | 0.00 | 0.00 | 0.00 | 57 | 1016.1 |
| 20260506012015 | 13 | 304 | 11.3 | 25.7 | 0.00 | 0.00 | 0.00 | 57 | 1016.1 |
| 20260506011551 | 13 | 360 | 16.1 | 25.7 | 0.00 | 0.00 | 0.00 | 58 | 1016.1 |
| 20260506011020 | 13 | 311 | 17.7 | 25.7 | 0.00 | 0.00 | 0.00 | 58 | 1016.2 |
| 20260506010520 | 13 | 280 | 11.3 | 25.7 | 0.00 | 0.00 | 0.00 | 59 | 1016.2 |
| 20260506010051 | 12 | 296 | 17.7 | 27.4 | 0.00 | 0.00 | 0.00 | 59 | 1016.3 |
| 20260506005518 | 12 | 315 | 22.5 | 29.0 | 0.00 | 0.00 | 0.00 | 58 | 1016.1 |
| 20260506005018 | 12 | 299 | 19.3 | 33.8 | 0.00 | 0.00 | 0.00 | 59 | 1016.3 |
| 20260506004600 | 13 | 315 | 14.5 | 29.0 | 0.00 | 0.00 | 0.00 | 59 | 1016.1 |
| 20260506004015 | 13 | 310 | 20.9 | 29.0 | 0.00 | 0.00 | 0.00 | 59 | 1016.1 |
| 20260506003517 | 13 | 326 | 20.9 | 32.2 | 0.00 | 0.00 | 0.00 | 58 | 1015.9 |
| 20260506003103 | 13 | 308 | 19.3 | 32.2 | 0.00 | 0.00 | 0.00 | 57 | 1016.1 |
| 20260506002519 | 13 | 302 | 22.5 | 35.4 | 0.00 | 0.00 | 0.00 | 58 | 1016.2 |
| 20260506002016 | 13 | 323 | 24.1 | 35.4 | 0.00 | 0.00 | 0.00 | 57 | 1016.2 |
| 20260506001554 | 13 | 301 | 22.5 | 30.6 | 0.00 | 0.00 | 0.00 | 57 | 1016.2 |
| 20260506001017 | 14 | 291 | 17.7 | 29.0 | 0.00 | 0.00 | 0.00 | 59 | 1016.0 |
| 20260506000516 | 13 | 304 | 20.9 | 33.8 | 0.00 | 0.00 | 0.00 | 61 | 1016.0 |
| 20260506000051 | 14 | 318 | 20.9 | 33.8 | 0.00 | 0.00 | 0.00 | 59 | 1015.8 |
| 20260505235517 | 15 | 308 | 22.5 | 30.6 | 0.00 | 0.00 | 0.00 | 57 | 1015.8 |
| 20260505235017 | 15 | 303 | 14.5 | 30.6 | 0.00 | 0.00 | 0.00 | 57 | 1015.8 |
| 20260505234613 | 15 | 300 | 20.9 | 25.7 | 0.00 | 0.00 | 0.00 | 54 | 1015.8 |
| 20260505234025 | 15 | 320 | 9.7 | 29.0 | 0.00 | 0.00 | 0.00 | 55 | 1015.9 |
| 20260505233520 | 15 | 321 | 12.9 | 29.0 | 0.00 | 0.00 | 0.00 | 59 | 1015.9 |
| 20260505233044 | 15 | 300 | 6.4 | 24.1 | 0.00 | 0.00 | 0.00 | 57 | 1016.0 |
| 20260505232517 | 14 | 336 | 12.9 | 25.7 | 0.00 | 0.00 | 0.00 | 55 | 1016.1 |
| 20260505232019 | 14 | 283 | 9.7 | 24.1 | 0.00 | 0.00 | 0.00 | 56 | 1016.0 |
| 20260505231552 | 14 | 331 | 11.3 | 20.9 | 0.00 | 0.00 | 0.00 | 56 | 1016.0 |
| 20260505231019 | 14 | 303 | 17.7 | 20.9 | 0.00 | 0.00 | 0.00 | 55 | 1015.9 |
| 20260505230519 | 14 | 278 | 12.9 | 20.9 | 0.00 | 0.00 | 0.00 | 56 | 1016.0 |
| 20260505230057 | 14 | 294 | 14.5 | 19.3 | 0.00 | 0.00 | 0.00 | 56 | 1015.7 |
| 20260505225521 | 15 | 297 | 6.4 | 20.9 | 0.00 | 0.00 | 0.00 | 56 | 1015.8 |
| 20260505225019 | 15 | 290 | 6.4 | 20.9 | 0.00 | 0.00 | 0.00 | 56 | 1015.7 |
| 20260505224547 | 15 | 80 | 9.7 | 24.1 | 0.00 | 0.00 | 0.00 | 56 | 1015.8 |
| 20260505224018 | 14 | 295 | 11.3 | 38.6 | 0.00 | 0.00 | 0.00 | 56 | 1016.0 |
| 20260505223519 | 14 | 298 | 16.1 | 38.6 | 0.00 | 0.00 | 0.00 | 57 | 1015.9 |
| 20260505223051 | 13 | 302 | 24.1 | 37.0 | 0.00 | 0.00 | 0.00 | 58 | 1015.9 |
| 20260505222524 | 13 | 317 | 22.5 | 37.0 | 0.00 | 0.00 | 0.00 | 58 | 1016.1 |
| 20260505222020 | 13 | 296 | 24.1 | 37.0 | 0.00 | 0.00 | 0.00 | 58 | 1015.9 |
| 20260505221553 | 13 | 297 | 27.4 | 37.0 | 0.00 | 0.00 | 0.00 | 57 | 1015.9 |
| 20260505221022 | 14 | 298 | 22.5 | 32.2 | 0.00 | 0.00 | 0.00 | 57 | 1015.8 |
| 20260505220519 | 14 | 319 | 16.1 | 32.2 | 0.00 | 0.00 | 0.00 | 55 | 1015.8 |
| 20260505220106 | 14 | 294 | 19.3 | 29.0 | 0.00 | 0.00 | 0.00 | 56 | 1015.6 |
| 20260505215519 | 15 | 300 | 16.1 | 29.0 | 0.00 | 0.00 | 0.00 | 54 | 1015.6 |
| 20260505215019 | 15 | 306 | 14.5 | 27.4 | 0.00 | 0.00 | 0.00 | 56 | 1015.6 |
| 20260505214604 | 15 | 311 | 16.1 | 32.2 | 0.00 | 0.00 | 0.00 | 56 | 1015.7 |
| 20260505214021 | 15 | 350 | 17.7 | 32.2 | 0.00 | 0.00 | 0.00 | 57 | 1015.7 |
| 20260505213524 | 15 | 300 | 16.1 | 29.0 | 0.00 | 0.00 | 0.00 | 57 | 1015.7 |
| 20260505213054 | 15 | 317 | 16.1 | 27.4 | 0.00 | 0.00 | 0.00 | 57 | 1015.6 |
| 20260505212521 | 15 | 304 | 12.9 | 27.4 | 0.00 | 0.00 | 0.00 | 57 | 1015.6 |
| 20260505212020 | 15 | 294 | 11.3 | 20.9 | 0.00 | 0.00 | 0.00 | 57 | 1015.7 |
| 20260505211600 | 15 | 350 | 9.7 | 29.0 | 0.00 | 0.00 | 0.00 | 58 | 1015.6 |
| 20260505211019 | 15 | 242 | 12.9 | 29.0 | 0.00 | 0.00 | 0.00 | 58 | 1015.6 |
| 20260505210519 | 15 | 295 | 12.9 | 22.5 | 0.00 | 0.00 | 0.00 | 58 | 1015.5 |
| 20260505210059 | 15 | 292 | 8.0 | 25.7 | 0.00 | 0.00 | 0.00 | 58 | 1015.6 |
| 20260505205521 | 15 | 309 | 17.7 | 25.7 | 0.00 | 0.00 | 0.00 | 58 | 1015.4 |
| 20260505205017 | 15 | 323 | 12.9 | 27.4 | 0.00 | 0.00 | 0.00 | 58 | 1015.5 |
| 20260505204550 | 15 | 295 | 12.9 | 27.4 | 0.00 | 0.00 | 0.00 | 59 | 1015.3 |
| 20260505204017 | 15 | 300 | 17.7 | 25.7 | 0.00 | 0.00 | 0.00 | 59 | 1015.2 |
| 20260505203517 | 15 | 285 | 14.5 | 25.7 | 0.00 | 0.00 | 0.00 | 59 | 1015.2 |
| 20260505203049 | 15 | 298 | 14.5 | 20.9 | 0.00 | 0.00 | 0.00 | 59 | 1015.2 |
| 20260505202521 | 15 | 298 | 12.9 | 20.9 | 0.00 | 0.00 | 0.00 | 59 | 1015.2 |
| 20260505202019 | 15 | 306 | 11.3 | 19.3 | 0.00 | 0.00 | 0.00 | 60 | 1015.0 |
| 20260505201548 | 15 | 308 | 12.9 | 19.3 | 0.00 | 0.00 | 0.00 | 61 | 1015.1 |
| 20260505201020 | 15 | 284 | 12.9 | 19.3 | 0.00 | 0.00 | 0.00 | 60 | 1015.0 |
| 20260505200703 | 15 | 296 | 14.5 | 17.7 | 0.00 | 0.00 | 0.00 | 60 | 1015.1 |
| 20260505200044 | 15 | 311 | 6.4 | 19.3 | 0.00 | 0.00 | 0.00 | 60 | 1015.0 |
| 20260505195515 | 15 | 300 | 11.3 | 20.9 | 0.00 | 0.00 | 0.00 | 61 | 1015.0 |
| 20260505195016 | 15 | 331 | 11.3 | 20.9 | 0.00 | 0.00 | 0.00 | 61 | 1014.9 |
| 20260505194541 | 15 | 313 | 12.9 | 19.3 | 0.00 | 0.00 | 0.00 | 61 | 1014.9 |
| 20260505194016 | 15 | 298 | 11.3 | 17.7 | 0.00 | 0.00 | 0.00 | 61 | 1014.9 |
| 20260505193513 | 14 | 298 | 12.9 | 22.5 | 0.00 | 0.00 | 0.00 | 63 | 1014.9 |
| 20260505193046 | 14 | 311 | 12.9 | 22.5 | 0.00 | 0.00 | 0.00 | 63 | 1014.9 |
| 20260505192517 | 14 | 294 | 12.9 | 22.5 | 0.00 | 0.00 | 0.00 | 65 | 1014.8 |
| 20260505192014 | 14 | 302 | 11.3 | 24.1 | 0.00 | 0.00 | 0.00 | 65 | 1014.9 |
| 20260505191551 | 13 | 309 | 16.1 | 24.1 | 0.00 | 0.00 | 0.00 | 65 | 1014.8 |
| 20260505191018 | 14 | 284 | 17.7 | 25.7 | 0.00 | 0.00 | 0.00 | 64 | 1014.7 |
| 20260505190518 | 14 | 307 | 16.1 | 25.7 | 0.00 | 0.00 | 0.00 | 66 | 1014.9 |
| 20260505190048 | 14 | 287 | 12.9 | 22.5 | 0.00 | 0.00 | 0.00 | 66 | 1014.7 |
| 20260505185518 | 13 | 313 | 12.9 | 22.5 | 0.00 | 0.00 | 0.00 | 66 | 1014.7 |
| 20260505185017 | 13 | 277 | 17.7 | 22.5 | 0.00 | 0.00 | 0.00 | 65 | 1014.7 |
| 20260505184543 | 13 | 292 | 14.5 | 20.9 | 0.00 | 0.00 | 0.00 | 66 | 1014.6 |
| 20260505184015 | 13 | 315 | 12.9 | 20.9 | 0.00 | 0.00 | 0.00 | 66 | 1014.6 |
| 20260505183513 | 13 | 323 | 14.5 | 20.9 | 0.00 | 0.00 | 0.00 | 66 | 1014.6 |
| 20260505183049 | 13 | 276 | 11.3 | 17.7 | 0.00 | 0.00 | 0.00 | 65 | 1014.5 |
| 20260505182512 | 13 | 300 | 9.7 | 17.7 | 0.00 | 0.00 | 0.00 | 66 | 1014.5 |
| 20260505182016 | 13 | 321 | 11.3 | 17.7 | 0.00 | 0.00 | 0.00 | 66 | 1014.4 |
| 20260505181548 | 13 | 304 | 12.9 | 19.3 | 0.00 | 0.00 | 0.00 | 66 | 1014.3 |
| 20260505181017 | 13 | 331 | 12.9 | 19.3 | 0.00 | 0.00 | 0.00 | 66 | 1014.4 |
| 20260505180516 | 13 | 296 | 9.7 | 14.5 | 0.00 | 0.00 | 0.00 | 67 | 1014.5 |
| 20260505180056 | 13 | 306 | 9.7 | 14.5 | 0.00 | 0.00 | 0.00 | 67 | 1014.4 |
| 20260505175517 | 13 | 286 | 9.7 | 14.5 | 0.00 | 0.00 | 0.00 | 68 | 1014.4 |
| 20260505175019 | 13 | 304 | 8.0 | 16.1 | 0.00 | 0.00 | 0.00 | 70 | 1014.3 |
| 20260505174607 | 12 | 310 | 11.3 | 17.7 | 0.00 | 0.00 | 0.00 | 70 | 1014.2 |
| 20260505174016 | 12 | 309 | 11.3 | 17.7 | 0.00 | 0.00 | 0.00 | 70 | 1014.2 |
| 20260505173514 | 12 | 315 | 12.9 | 17.7 | 0.00 | 0.00 | 0.00 | 71 | 1014.2 |
| 20260505173047 | 12 | 292 | 12.9 | 17.7 | 0.00 | 0.00 | 0.00 | 71 | 1014.2 |
| 20260505172516 | 12 | 295 | 12.9 | 16.1 | 0.00 | 0.00 | 0.00 | 70 | 1014.1 |
| 20260505172015 | 12 | 302 | 11.3 | 14.5 | 0.00 | 0.00 | 0.00 | 71 | 1014.1 |
| 20260505171549 | 12 | 300 | 9.7 | 12.9 | 0.00 | 0.00 | 0.00 | 70 | 1014.0 |
| 20260505171018 | 13 | 291 | 8.0 | 12.9 | 0.00 | 0.00 | 0.00 | 71 | 1014.0 |
| 20260505170517 | 13 | 302 | 8.0 | 12.9 | 0.00 | 0.00 | 0.00 | 69 | 1014.0 |
| 20260505170100 | 13 | 295 | 8.0 | 12.9 | 0.00 | 0.00 | 0.00 | 68 | 1014.0 |
| 20260505165518 | 13 | 302 | 6.4 | 9.7 | 0.00 | 0.00 | 0.00 | 69 | 1014.1 |
| 20260505165016 | 13 | 302 | 8.0 | 11.3 | 0.00 | 0.00 | 0.00 | 70 | 1014.0 |
| 20260505164552 | 13 | 300 | 6.4 | 14.5 | 0.00 | 0.00 | 0.00 | 69 | 1014.1 |
| 20260505164016 | 13 | 287 | 8.0 | 14.5 | 0.00 | 0.00 | 0.00 | 69 | 1014.0 |
| 20260505163517 | 13 | 297 | 9.7 | 12.9 | 0.00 | 0.00 | 0.00 | 68 | 1014.0 |
| 20260505163050 | 13 | 309 | 4.8 | 12.9 | 0.00 | 0.00 | 0.00 | 67 | 1013.9 |
| 20260505162515 | 12 | 309 | 9.7 | 12.9 | 0.00 | 0.00 | 0.00 | 66 | 1013.8 |
| 20260505162017 | 12 | 298 | 8.0 | 12.9 | 0.00 | 0.00 | 0.00 | 67 | 1013.8 |
| 20260505161604 | 13 | 298 | 8.0 | 12.9 | 0.00 | 0.00 | 0.00 | 65 | 1013.6 |
| 20260505161020 | 13 | 302 | 8.0 | 9.7 | 0.00 | 0.00 | 0.00 | 60 | 1013.6 |
| 20260505160517 | 13 | 312 | 6.4 | 9.7 | 0.00 | 0.00 | 0.00 | 59 | 1013.7 |
| 20260505160113 | 13 | 313 | 6.4 | 9.7 | 0.00 | 0.00 | 0.00 | 59 | 1013.5 |
| 20260505153107 | 13 | 315 | 6.4 | 12.9 | 0.00 | 0.00 | 0.00 | 61 | 1013.4 |
| 20260505152520 | 13 | 321 | 6.4 | 12.9 | 0.00 | 0.00 | 0.00 | 61 | 1013.5 |
| 20260505152015 | 13 | 313 | 6.4 | 12.9 | 0.00 | 0.00 | 0.00 | 61 | 1013.4 |
| 20260505151554 | 13 | 311 | 6.4 | 14.5 | 0.00 | 0.00 | 0.00 | 63 | 1013.4 |
| 20260505151020 | 13 | 292 | 8.0 | 17.7 | 0.00 | 0.00 | 0.00 | 64 | 1013.4 |
| 20260505150519 | 13 | 336 | 9.7 | 17.7 | 0.00 | 0.00 | 0.00 | 62 | 1013.3 |
| 20260505140522 | 11 | 134 | 6.4 | 11.3 | 0.00 | 0.00 | 0.00 | 73 | 1012.7 |
| 20260505140109 | 10 | 146 | 8.0 | 11.3 | 0.00 | 0.00 | 0.00 | 74 | 1012.7 |
| 20260505130104 | 9 | 96 | 11.3 | 12.9 | 0.00 | 0.00 | 0.00 | 80 | 1012.2 |
| 20260505125011 | 9 | 111 | 9.7 | 11.3 | 0.00 | 0.00 | 0.00 | 81 | 1012.2 |
| 20260505124526 | 9 | 111 | 4.8 | 11.3 | 0.00 | 0.00 | 0.00 | 81 | 1012.2 |
| 20260505124011 | 9 | 111 | 6.4 | 11.3 | 0.00 | 0.00 | 0.00 | 81 | 1012.2 |
| 20260505123508 | 10 | 123 | 9.7 | 11.3 | 0.00 | 0.00 | 0.00 | 77 | 1012.1 |
| 20260505123041 | 9 | 110 | 9.7 | 12.9 | 0.00 | 0.00 | 0.00 | 80 | 1012.2 |
| 20260505122509 | 9 | 103 | 11.3 | 12.9 | 0.00 | 0.00 | 0.00 | 82 | 1012.2 |
| 20260505122013 | 10 | 132 | 9.7 | 12.9 | 0.00 | 0.00 | 0.00 | 83 | 1012.2 |
| 20260505121528 | 10 | 132 | 8.0 | 11.3 | 0.00 | 0.00 | 0.00 | 81 | 1012.2 |
| 20260505121010 | 10 | 132 | 6.4 | 11.3 | 0.00 | 0.00 | 0.00 | 79 | 1012.2 |
| 20260505120509 | 9 | 132 | 6.4 | 12.9 | 0.00 | 0.00 | 0.00 | 80 | 1012.3 |
| 20260505120029 | 9 | 132 | 9.7 | 12.9 | 0.00 | 0.00 | 0.00 | 81 | 1012.2 |
| 20260505115510 | 9 | 132 | 9.7 | 11.3 | 0.00 | 0.00 | 0.00 | 82 | 1012.3 |
| 20260505115010 | 9 | 132 | 6.4 | 8.0 | 0.00 | 0.00 | 0.00 | 82 | 1012.4 |
| 20260505114526 | 9 | 132 | 6.4 | 8.0 | 0.00 | 0.00 | 0.00 | 81 | 1012.4 |
| 20260505114008 | 10 | 132 | 6.4 | 8.0 | 0.00 | 0.00 | 0.00 | 81 | 1012.3 |
| 20260505113510 | 10 | 132 | 6.4 | 8.0 | 0.00 | 0.00 | 0.00 | 81 | 1012.3 |
| 20260505113034 | 10 | 132 | 6.4 | 8.0 | 0.00 | 0.00 | 0.00 | 79 | 1012.2 |
| 20260505112509 | 10 | 132 | 6.4 | 8.0 | 0.00 | 0.00 | 0.00 | 79 | 1012.2 |
| 20260505112015 | 10 | 132 | 6.4 | 8.0 | 0.00 | 0.00 | 0.00 | 79 | 1012.1 |
| 20260505111548 | 10 | 132 | 6.4 | 8.0 | 0.00 | 0.00 | 0.00 | 77 | 1012.1 |
| 20260505111013 | 10 | 132 | 4.8 | 11.3 | 0.00 | 0.00 | 0.00 | 73 | 1012.1 |
| 20260505110513 | 10 | 132 | 6.4 | 11.3 | 0.00 | 0.00 | 0.00 | 75 | 1012.2 |